Temperature
9 9 9 11 11 12 12 12 12 13 13 12 13 14 15 15 15 15 15 15 16 16 16 16 16 16 16 17 18 19 19 19 18 16 15 15 15 14 14 13 12 12 12 11
8 8 10 11 10 10 10 10 11 12 12 12 12 13 14 15 15 14 15 15 15 16 16 16 16 16 16 17 18 18 19 19 18 17 16 16 15 14 13 13 12 12 11 11
9 9 10 9 9 9 9 9 10 10 11 11 11 12 15 16 15 14 14 14 15 15 16 16 16 16 16 16 17 18 18 18 17 16 15 15 15 14 13 12 12 11 11 11
9 9 8 8 8 8 9 10 10 9 9 10 10 10 14 15 14 14 15 15 15 15 15 15 16 16 16 16 17 17 18 18 16 16 16 16 15 14 13 12 11 11 10 11
8 8 8 8 8 9 9 9 9 9 9 9 10 8 12 14 13 14 15 15 16 16 15 15 15 15 16 16 17 17 17 17 16 16 15 14 14 14 13 12 11 11 10 10
9 8 8 8 9 9 9 8 8 8 8 7 10 10 11 15 15 15 16 16 15 15 15 14 14 14 14 15 16 16 16 16 15 14 13 13 14 14 13 11 11 10 10 10
7 8 8 8 8 8 8 7 8 8 7 9 12 11 12 15 15 15 15 15 15 14 14 14 14 13 13 14 16 16 15 15 14 13 13 13 13 13 12 12 11 11 10 10
7 8 8 8 8 8 8 8 8 9 10 11 11 10 13 15 15 14 14 14 14 14 14 13 13 13 13 14 15 15 14 14 13 13 13 13 13 12 12 12 11 10 10 10
7 8 8 8 8 8 7 7 9 8 8 8 10 11 13 14 14 14 14 14 13 13 13 13 12 12 12 13 14 14 13 13 13 12 12 12 12 12 11 11 10 10 10 9
8 7 8 8 7 7 8 8 7 6 7 8 10 12 13 14 14 14 14 14 13 13 12 12 12 12 11 12 11 11 11 12 12 12 12 12 11 11 11 10 10 10 9 9
8 7 7 6 6 7 7 6 6 7 8 8 9 12 14 13 14 14 14 13 12 12 11 11 11 11 10 9 9 9 10 11 11 11 12 11 11 11 10 10 9 9 9 8
8 7 6 7 9 9 9 8 7 6 7 8 8 10 14 13 13 13 13 12 12 11 10 10 10 9 8 8 8 9 10 11 11 11 11 11 10 10 9 9 9 8 8 7
8 6 6 8 8 8 7 8 8 6 6 7 7 10 13 13 12 12 12 12 11 10 9 9 8 7 7 7 7 9 10 11 11 11 11 10 10 9 9 9 8 8 7 6
8 6 6 8 9 8 6 7 7 5 6 7 8 10 12 12 12 12 12 11 10 10 9 7 7 6 6 6 7 10 11 11 11 10 10 10 9 9 8 8 8 7 6 5
7 6 6 7 8 7 7 6 6 5 6 7 9 10 11 11 11 11 10 9 9 9 8 6 5 5 5 6 7 10 11 11 10 10 9 9 9 8 8 7 6 5 4 4
7 6 6 7 9 9 7 7 7 6 6 6 7 8 10 10 9 8 8 8 8 8 7 5 4 4 5 6 8 10 10 10 9 9 9 9 8 7 7 6 5 4 3 3
7 6 6 8 10 8 8 8 8 7 7 7 7 9 10 9 8 7 7 7 8 7 6 4 4 4 5 7 9 10 9 9 8 9 8 8 7 6 5 5 4 3 2 2
7 7 6 7 8 9 10 10 9 8 9 9 9 10 10 9 8 7 7 7 7 6 5 4 4 4 5 7 8 8 8 8 8 8 7 7 6 5 4 3 3 2 1 0
8 7 6 7 8 10 10 10 9 8 9 10 10 10 10 10 9 8 5 5 6 6 5 4 5 6 7 8 8 8 8 8 7 7 6 5 5 4 3 2 1 1 -0 -1
7 7 7 7 9 10 11 11 9 9 11 11 10 10 10 9 10 9 4 5 5 5 5 6 6 7 8 8 8 8 7 7 6 6 5 4 3 2 2 1 0 -0 -1 -1
7 7 7 8 9 10 12 10 10 11 12 10 8 9 10 10 8 4 3 4 5 5 6 7 7 8 8 8 7 7 6 5 5 4 3 2 2 1 0 -0 -1 -1 -1 -1
9 9 9 9 9 11 12 10 11 11 9 8 7 7 7 5 3 3 3 3 4 5 5 6 7 7 7 7 7 7 5 4 4 3 2 1 1 -0 -1 -1 -1 -2 -2 -2
9 10 11 11 12 13 10 10 9 7 7 7 6 5 6 4 3 2 2 2 3 4 5 5 7 7 6 6 6 6 4 3 2 2 1 0 -1 -1 -1 -2 -2 -2 -2 -3
9 9 9 10 11 11 10 9 7 6 5 5 5 5 6 5 3 3 2 2 2 3 4 4 6 6 5 5 4 4 3 2 1 0 -0 -1 -1 -2 -2 -2 -3 -3 -3 -3
10 9 9 10 11 11 10 7 6 6 5 5 5 5 5 5 3 3 2 2 3 3 3 4 6 5 4 3 3 2 1 0 -0 -1 -1 -1 -2 -2 -3 -3 -3 -3 -4 -4
10 10 11 12 12 11 10 6 6 5 5 5 5 4 4 5 4 4 3 3 3 4 4 5 4 3 2 2 1 0 -1 -1 -1 -1 -2 -2 -2 -3 -3 -3 -4 -4 -4 -5
Wind_Speed
7 7 11 13 15 11 6 9 12 10 8 11 19 24 21 20 21 22 23 22 22 21 19 17 17 14 12 11 10 11 13 15 15 14 14 12 11 10 9 8 11 13 15 14
6 12 14 10 10 13 15 16 17 14 12 12 21 30 26 25 27 26 26 26 26 25 24 22 21 17 14 13 12 12 15 17 18 15 14 10 11 9 9 9 9 11 13 13
12 2 6 11 13 13 16 17 16 15 14 15 18 24 21 15 16 18 21 23 25 26 26 25 24 23 18 15 14 13 16 17 18 17 12 12 9 8 7 8 7 7 10 11
10 8 5 8 11 13 12 11 14 13 10 8 7 12 17 11 11 12 15 18 21 22 23 23 24 24 21 18 14 15 17 18 19 18 17 20 14 12 10 9 9 9 10 11
8 6 8 12 13 13 9 5 9 11 13 13 15 11 18 13 15 14 17 20 20 19 18 19 20 21 20 17 16 17 18 19 19 19 19 18 15 13 13 12 14 11 10 11
7 5 6 7 7 12 8 5 9 11 9 12 20 16 17 16 16 15 16 15 15 14 14 15 17 17 16 15 16 18 20 20 20 19 19 18 19 19 18 17 15 11 9 9
7 11 8 6 6 7 10 6 4 6 8 11 12 12 16 17 14 16 15 14 13 13 12 12 13 14 15 17 19 20 21 21 21 20 19 18 20 22 23 20 16 14 11 10
5 6 10 11 11 8 14 11 9 7 9 12 9 15 15 16 14 15 15 14 12 12 12 12 12 12 15 19 21 22 22 22 21 20 18 17 18 15 15 17 15 14 11 10
7 5 4 10 11 8 7 12 12 11 15 15 14 18 21 19 17 17 15 12 10 12 13 12 10 11 14 18 21 22 23 21 21 19 18 17 15 15 16 15 14 11 11 11
6 5 5 5 8 12 12 6 7 8 8 14 19 25 21 20 17 17 14 10 10 12 14 14 10 10 13 15 18 19 20 20 19 18 17 14 14 15 16 15 14 13 13 12
9 6 4 6 11 15 15 10 11 9 10 10 16 16 10 11 12 12 10 8 11 13 15 14 9 8 11 14 17 18 18 19 18 17 16 16 15 15 16 14 14 14 13 12
11 6 8 12 13 14 17 18 17 12 14 12 12 19 11 11 11 10 11 11 13 14 14 12 7 7 12 15 17 17 17 17 17 17 17 16 16 16 15 15 14 13 12 11
10 6 5 6 6 9 12 19 22 18 13 15 17 17 6 8 10 11 13 15 16 15 12 8 3 9 13 15 16 16 16 16 16 17 17 17 17 17 16 15 14 13 12 10
9 7 10 12 14 9 12 16 20 19 14 18 24 28 23 18 18 19 20 21 19 15 10 4 6 10 12 14 15 16 16 15 16 16 17 18 17 16 16 15 14 12 11 9
8 7 11 19 23 22 25 26 21 23 24 21 27 28 27 21 18 18 18 18 17 14 7 6 8 11 12 13 14 15 16 15 15 17 17 17 17 16 16 15 13 11 9 7
8 6 8 18 22 22 24 24 22 20 22 26 29 30 24 16 11 14 15 16 15 11 6 9 11 12 13 14 14 15 16 15 15 17 17 17 17 16 15 14 13 11 8 7
7 5 5 12 16 15 10 10 10 10 14 16 21 25 19 14 15 15 14 14 11 6 8 11 12 13 13 14 15 16 16 16 17 17 17 17 16 15 14 13 11 9 7 5
8 6 4 7 11 6 5 7 10 11 14 17 21 21 16 13 10 10 10 9 5 5 10 12 13 13 14 15 15 17 17 17 18 17 17 16 15 15 13 11 10 8 5 4
14 9 5 4 7 9 8 6 5 5 7 8 15 19 16 11 10 6 6 4 2 8 12 13 14 15 15 16 17 18 18 17 17 16 16 14 14 14 12 10 8 6 4 2
7 10 6 5 5 4 6 8 5 5 5 8 11 11 9 6 4 3 7 6 10 13 13 14 15 16 16 16 17 18 17 16 16 15 14 13 12 12 10 9 7 5 3 1
4 5 7 7 5 6 6 8 6 4 9 12 11 8 3 3 1 5 7 10 12 14 15 16 16 14 14 15 17 18 17 15 15 14 14 12 11 10 9 8 6 4 2 0
7 6 6 5 5 5 2 4 3 7 8 9 8 4 3 7 9 10 11 12 13 14 15 15 15 15 14 14 17 18 16 15 15 14 13 12 11 9 7 6 5 3 1 2
6 6 3 5 6 5 3 6 7 5 7 6 4 1 8 9 9 11 12 13 13 14 14 14 17 17 14 13 15 18 15 14 14 14 12 11 9 7 6 5 3 2 2 3
4 4 5 6 9 8 8 6 3 3 4 3 2 7 8 11 12 13 12 13 13 14 14 14 16 17 15 14 15 16 14 13 14 13 11 9 8 6 5 3 2 2 3 4
4 5 4 7 8 7 2 3 3 4 5 7 8 8 11 15 14 14 13 13 13 13 13 13 14 16 16 15 14 13 12 13 13 11 9 8 6 5 4 3 2 3 2 4
6 8 6 5 3 3 3 3 4 6 7 8 12 13 12 12 15 15 13 13 13 14 14 15 16 16 15 14 13 11 10 11 11 9 7 5 4 4 3 2 1 0 3 5
Wind_Direction
174 197 216 220 220 245 265 256 260 262 279 291 274 274 272 271 268 267 266 264 261 258 254 254 255 255 253 244 229 213 193 180 177 179 173 166 159 147 133 128 134 135 133 134
173 225 233 236 234 242 250 259 266 275 274 280 284 282 278 269 263 262 262 261 258 257 254 250 249 248 246 239 224 205 186 178 180 181 176 168 146 131 122 119 116 125 131 136
201 177 216 218 227 236 244 250 262 271 291 279 285 286 277 265 259 257 256 256 256 253 250 246 242 239 235 231 216 198 183 179 181 176 159 141 127 125 121 119 115 124 133 136
223 222 214 211 224 229 253 249 253 262 268 275 271 289 287 284 273 262 256 254 252 249 246 243 239 234 225 220 206 192 179 178 178 170 167 164 161 157 154 144 134 134 135 134
207 204 216 227 230 222 243 242 244 255 262 269 256 261 281 275 267 265 260 257 256 256 252 246 241 236 224 209 192 183 176 178 175 174 173 170 158 146 138 133 135 135 136 134
230 202 221 229 228 224 229 236 259 255 255 258 253 243 274 273 267 269 266 265 270 275 271 261 251 241 225 197 183 177 176 177 174 173 172 167 151 145 144 145 146 145 142 139
235 225 217 202 205 200 203 213 252 237 227 248 255 240 257 274 263 257 268 280 291 296 289 278 259 233 207 188 183 179 177 175 174 172 170 161 156 153 155 155 156 154 151 147
224 237 206 204 212 206 203 209 226 254 258 270 257 246 257 268 259 259 266 277 292 307 306 289 268 233 203 189 184 181 178 174 172 169 163 156 155 153 155 157 156 155 150 143
216 253 203 208 208 208 202 219 236 261 271 272 259 257 262 258 254 254 255 265 292 315 321 306 276 234 204 190 185 182 176 171 168 163 153 150 152 150 149 149 147 140 135 137
211 251 243 214 212 225 231 227 211 221 255 260 262 264 263 262 252 249 250 267 299 318 324 320 287 231 200 188 183 179 172 165 159 152 146 142 145 144 143 144 141 136 135 136
208 226 238 200 214 215 205 216 220 236 244 261 273 270 275 265 259 253 251 280 309 320 322 323 297 227 189 177 173 168 163 154 150 145 137 136 138 138 139 136 133 132 134 139
204 225 251 240 233 230 225 226 223 237 244 245 261 270 272 256 260 252 264 295 312 316 319 321 291 196 173 169 164 158 153 148 144 138 134 135 135 134 132 129 129 131 133 136
175 205 270 268 223 219 236 239 236 239 253 252 255 267 267 254 257 258 277 300 312 314 319 316 233 177 167 164 155 148 143 139 137 135 133 133 133 131 128 127 128 128 130 133
184 213 228 260 281 285 258 254 241 234 243 252 251 261 267 269 276 281 290 299 301 304 307 275 191 167 157 154 145 138 133 134 135 134 131 130 130 128 126 126 125 127 130 135
204 243 242 258 272 275 271 271 261 242 241 251 262 268 276 284 288 289 291 293 293 294 277 205 172 153 145 141 136 131 129 133 134 128 124 123 123 122 122 122 123 124 128 133
210 259 275 277 277 277 276 275 268 254 246 249 261 271 277 289 287 289 289 289 288 284 225 175 157 146 143 140 135 129 127 130 127 122 120 121 121 120 121 123 124 125 129 133
203 236 279 289 302 297 279 279 267 245 236 242 253 260 269 272 277 279 281 281 281 258 177 159 151 144 140 137 133 128 127 124 119 117 119 121 121 121 123 125 126 129 132 136
223 238 267 289 306 300 322 307 288 274 268 251 251 263 270 270 276 279 285 285 268 174 152 144 136 129 127 126 124 122 120 119 118 118 119 121 123 123 125 125 125 127 131 136
228 235 255 277 295 288 307 325 313 296 294 296 271 267 268 271 286 294 342 312 182 139 133 128 126 124 124 124 123 119 116 117 118 120 122 124 126 126 126 124 124 127 133 128
214 219 236 272 293 301 314 324 315 272 317 360 329 294 273 252 282 18 20 55 105 112 115 118 119 120 119 121 122 117 117 117 117 120 121 122 123 123 122 121 122 123 123 111
173 203 230 251 266 275 287 310 305 334 341 337 330 318 254 210 65 75 70 79 95 105 113 117 116 114 117 121 118 113 112 113 115 116 114 111 111 112 114 117 119 123 119 50
208 208 218 222 244 276 296 315 322 317 316 312 316 331 120 105 92 88 87 91 98 104 110 113 111 109 113 118 116 110 109 113 114 111 109 107 107 107 115 121 121 113 65 335
222 225 245 232 256 304 284 270 294 308 294 298 306 118 127 113 103 100 97 97 100 104 108 112 113 110 107 110 114 112 115 117 115 111 110 110 111 113 117 115 111 91 21 349
235 218 243 265 270 279 289 295 327 327 294 306 133 133 129 120 118 110 106 104 105 107 111 115 113 108 103 103 105 112 117 118 117 116 118 121 120 116 110 100 79 41 6 345
250 199 233 262 283 303 340 12 27 63 85 98 103 110 120 121 119 116 112 111 111 111 111 110 109 107 107 107 106 110 118 122 120 121 121 119 114 113 105 89 59 9 358 335
217 211 225 265 306 302 340 55 95 106 106 114 115 111 113 120 122 118 114 114 113 112 110 108 106 108 110 110 108 111 120 126 124 122 121 116 113 104 85 52 15 318 313 318
Height
1491 1493 1490 1487 1489 1487 1487 1486 1483 1482 1482 1481 1471 1463 1462 1463 1463 1462 1460 1459 1457 1457 1457 1458 1459 1459 1460 1462 1464 1466 1468 1469 1471 1474 1477 1480 1484 1488 1492 1496 1500 1503 1505 1508
1492 1490 1485 1487 1490 1491 1491 1489 1485 1482 1482 1480 1468 1456 1454 1454 1452 1453 1452 1450 1449 1448 1449 1450 1451 1452 1452 1454 1457 1459 1461 1463 1465 1468 1472 1476 1479 1484 1488 1492 1496 1499 1503 1505
1481 1485 1484 1488 1490 1491 1489 1488 1485 1485 1482 1478 1473 1449 1437 1436 1439 1442 1442 1440 1439 1437 1437 1439 1440 1442 1444 1446 1449 1452 1453 1455 1458 1462 1465 1470 1475 1479 1484 1488 1492 1496 1500 1503
1481 1482 1486 1487 1488 1489 1486 1483 1484 1485 1486 1476 1473 1458 1428 1431 1435 1435 1435 1431 1428 1426 1426 1427 1429 1431 1434 1437 1441 1443 1445 1448 1452 1455 1459 1465 1470 1474 1479 1484 1489 1493 1497 1501
1479 1481 1483 1484 1483 1484 1481 1483 1483 1482 1481 1478 1468 1470 1433 1428 1429 1428 1426 1422 1418 1418 1419 1419 1420 1422 1424 1428 1431 1435 1437 1441 1445 1450 1456 1463 1467 1471 1476 1481 1486 1490 1495 1498
1476 1480 1481 1479 1480 1481 1481 1484 1483 1481 1481 1475 1454 1458 1433 1419 1419 1419 1416 1414 1413 1413 1413 1412 1413 1414 1416 1418 1422 1426 1431 1435 1440 1445 1452 1458 1463 1467 1472 1477 1482 1487 1491 1494
1475 1475 1476 1478 1478 1480 1481 1483 1479 1474 1472 1456 1439 1442 1426 1413 1415 1414 1412 1411 1409 1408 1407 1406 1405 1406 1407 1409 1414 1419 1424 1429 1434 1441 1448 1454 1460 1465 1469 1474 1479 1484 1488 1491
1471 1466 1468 1472 1472 1472 1474 1474 1471 1462 1448 1437 1436 1434 1417 1409 1411 1411 1410 1409 1406 1404 1402 1400 1399 1399 1399 1402 1407 1413 1418 1424 1430 1436 1443 1450 1457 1462 1467 1472 1477 1481 1485 1489
1465 1464 1465 1467 1469 1470 1471 1471 1465 1464 1453 1449 1433 1418 1408 1406 1408 1407 1405 1405 1403 1400 1398 1395 1393 1393 1394 1396 1401 1407 1413 1419 1425 1432 1438 1446 1453 1459 1464 1469 1474 1478 1483 1486
1462 1466 1462 1465 1469 1468 1466 1464 1467 1466 1452 1435 1418 1408 1400 1395 1398 1399 1399 1399 1398 1397 1394 1390 1388 1388 1390 1392 1398 1405 1411 1416 1422 1428 1436 1443 1450 1457 1463 1467 1472 1477 1481 1484
1459 1465 1463 1465 1462 1456 1462 1465 1462 1453 1444 1434 1416 1400 1387 1391 1393 1393 1395 1396 1395 1393 1390 1387 1384 1385 1386 1389 1395 1403 1409 1414 1420 1427 1434 1441 1448 1455 1461 1466 1471 1475 1479 1482
1457 1461 1458 1453 1447 1448 1447 1446 1449 1448 1436 1429 1420 1398 1388 1391 1391 1392 1392 1392 1391 1389 1386 1383 1381 1382 1384 1387 1393 1400 1406 1412 1419 1426 1433 1440 1447 1453 1459 1465 1470 1474 1477 1479
1454 1459 1454 1437 1442 1446 1445 1438 1437 1439 1434 1425 1418 1398 1386 1388 1389 1389 1388 1387 1386 1385 1382 1379 1379 1380 1383 1387 1392 1398 1405 1412 1419 1426 1433 1439 1446 1452 1458 1464 1469 1472 1475 1477
1452 1452 1451 1438 1428 1434 1438 1432 1431 1434 1424 1412 1400 1388 1382 1385 1386 1385 1384 1383 1382 1380 1378 1377 1378 1380 1383 1387 1391 1397 1405 1413 1420 1427 1433 1439 1446 1452 1458 1463 1467 1470 1474 1476
1448 1447 1444 1438 1431 1429 1426 1422 1421 1421 1415 1407 1389 1383 1377 1380 1382 1382 1381 1379 1377 1375 1375 1375 1377 1379 1382 1387 1392 1398 1406 1414 1421 1427 1433 1439 1445 1452 1457 1461 1465 1469 1472 1474
1443 1442 1438 1430 1421 1415 1412 1407 1405 1405 1405 1400 1392 1383 1377 1380 1381 1380 1377 1375 1372 1371 1372 1374 1376 1378 1382 1387 1392 1399 1407 1414 1422 1428 1434 1440 1446 1451 1456 1460 1464 1467 1470 1471
1437 1439 1435 1420 1408 1408 1400 1397 1395 1393 1390 1389 1385 1374 1373 1378 1378 1376 1374 1371 1369 1369 1371 1373 1375 1378 1383 1389 1394 1401 1408 1416 1423 1430 1436 1442 1447 1452 1456 1460 1463 1466 1468 1469
1432 1433 1433 1422 1413 1400 1396 1392 1390 1386 1381 1379 1375 1369 1370 1372 1372 1372 1370 1368 1367 1368 1371 1373 1376 1380 1385 1391 1398 1405 1412 1420 1427 1433 1438 1443 1448 1452 1456 1459 1462 1465 1466 1466
1427 1430 1429 1421 1409 1398 1392 1389 1388 1386 1379 1373 1369 1365 1366 1369 1370 1368 1368 1366 1367 1369 1372 1375 1379 1384 1390 1397 1404 1410 1417 1424 1430 1435 1440 1445 1449 1453 1456 1459 1461 1463 1464 1463
1422 1425 1426 1418 1410 1398 1391 1386 1385 1386 1374 1372 1369 1365 1365 1368 1367 1369 1369 1368 1370 1372 1375 1379 1384 1390 1397 1403 1410 1415 1421 1427 1433 1438 1442 1447 1451 1454 1456 1459 1460 1461 1461 1461
1419 1420 1419 1415 1409 1395 1387 1385 1384 1380 1377 1373 1370 1367 1366 1367 1370 1374 1372 1373 1374 1377 1380 1385 1391 1397 1402 1408 1414 1419 1425 1430 1435 1440 1444 1448 1451 1454 1456 1458 1459 1459 1459 1458
1409 1410 1409 1407 1403 1395 1385 1384 1383 1380 1377 1374 1371 1369 1368 1370 1372 1374 1375 1377 1379 1381 1386 1391 1396 1401 1408 1414 1419 1423 1428 1433 1438 1442 1446 1449 1452 1454 1456 1457 1457 1457 1456 1454
1405 1402 1398 1397 1392 1384 1384 1383 1381 1379 1376 1373 1371 1370 1370 1371 1374 1376 1379 1381 1383 1386 1390 1395 1400 1405 1412 1418 1424 1426 1431 1436 1440 1444 1447 1450 1452 1454 1455 1455 1455 1454 1453 1451
1401 1401 1399 1394 1385 1383 1381 1380 1378 1376 1374 1372 1371 1371 1372 1373 1376 1379 1382 1385 1387 1391 1395 1399 1405 1410 1416 1422 1427 1431 1435 1439 1443 1446 1448 1450 1452 1453 1453 1453 1452 1451 1450 1447
1396 1397 1395 1390 1384 1381 1379 1379 1377 1375 1373 1373 1373 1373 1375 1377 1380 1383 1385 1389 1392 1395 1400 1405 1410 1415 1420 1426 1431 1435 1439 1442 1445 1447 1448 1450 1451 1451 1451 1451 1450 1448 1446 1444
1392 1390 1388 1383 1382 1382 1381 1379 1378 1377 1376 1376 1376 1377 1380 1382 1384 1387 1390 1393 1397 1401 1406 1411 1416 1420 1425 1430 1434 1438 1441 1444 1446 1447 1448 1449 1450 1450 1449 1449 1447 1445 1444 1441